EW9792 Boynton Beach FL US current weather conditions

sailwx.info

Wind from 256 at 4 knots gusting 6

Air temperature 30.0° C
Dewpoint 26.2° C

Last reported at 2020-Jul-10 03:06 UTC.
Time now 2020-Jul-10 03:56 UTC

Location: N 26°32' W 080°08'.
View on Google Maps.

See reports from other nearby stations

  
Tides and Currents Weather Stations Pressure Air Temp Water Temp Dewpoint Dewpoint Depression Visibility Wind Speed Wind Dir Waves Ship Positions
date/time (UTC)wind fromknots sea level pressurealtimeterstation pressurevisibilityair tempwater tempwave heightnotes
2020-Jul-10 03:06 256 4 gusting 6 30.0
2020-Jul-10 03:01 206 5 gusting 6 30.0
2020-Jul-10 02:56 227 5 gusting 6 30.0
2020-Jul-10 02:51 231 5 gusting 6 30.0
2020-Jul-10 02:46 261 2 gusting 6 30.6
2020-Jul-10 02:41 198 5 gusting 7 30.6
2020-Jul-10 02:36 248 6 gusting 7 30.6
2020-Jul-10 02:31 162 5 gusting 6 30.0
2020-Jul-10 02:26 198 6 gusting 7 30.0
2020-Jul-10 02:21 160 6 gusting 7 30.0
2020-Jul-10 02:16 202 5 gusting 7 30.0
2020-Jul-10 02:11 180 5 gusting 6 30.0
2020-Jul-10 02:06 204 5 gusting 7 30.0
2020-Jul-10 02:01 157 6 gusting 7 30.0
2020-Jul-10 01:56 272 6 gusting 7 30.0
2020-Jul-10 01:51 184 7 gusting 7 30.0
2020-Jul-10 01:46 151 5 gusting 7 30.0
2020-Jul-10 01:41 154 6 gusting 7 30.0
2020-Jul-10 01:36 172 5 gusting 10 30.0
2020-Jul-10 01:31 170 7 gusting 10 30.0
2020-Jul-10 01:26 180 6 gusting 10 30.0
2020-Jul-10 01:21 112 6 gusting 10 30.0
2020-Jul-10 01:16 192 5 gusting 8 30.0
2020-Jul-10 01:11 153 7 gusting 8 30.0
2020-Jul-10 01:06 149 6 gusting 10 30.0
2020-Jul-10 01:01 143 8 gusting 10 30.0
2020-Jul-10 00:56 137 9 gusting 10 30.0
2020-Jul-10 00:51 142 6 gusting 8 30.6
2020-Jul-10 00:46 166 6 gusting 8 30.6
2020-Jul-10 00:41 158 5 gusting 10 30.6
2020-Jul-10 00:36 108 6 gusting 10 30.6
2020-Jul-10 00:31 158 8 gusting 10 30.6
2020-Jul-10 00:26 147 5 gusting 11 30.6
2020-Jul-10 00:21 118 10 gusting 11 30.6
2020-Jul-10 00:16 136 7 gusting 8 31.1
2020-Jul-10 00:11 145 5 gusting 8 31.1
2020-Jul-10 00:06 154 4 gusting 8 31.1
2020-Jul-10 00:01 109 6 gusting 10 31.1
2020-Jul-09 23:56 114 7 gusting 10 31.7
2020-Jul-09 23:51 126 6 gusting 8 31.7
2020-Jul-09 23:46 133 5 gusting 8 31.7
2020-Jul-09 23:41 121 6 gusting 8 31.7
2020-Jul-09 23:36 143 5 gusting 8 31.7
2020-Jul-09 23:31 123 7 gusting 11 31.7
2020-Jul-09 23:26 099 8 gusting 11 31.7
2020-Jul-09 23:21 112 7 gusting 11 31.7
2020-Jul-09 23:16 096 7 gusting 11 31.7
2020-Jul-09 23:11 112 10 gusting 11 32.2
2020-Jul-09 23:06 115 8 gusting 12 32.2
2020-Jul-09 23:01 107 8 gusting 12 32.8
2020-Jul-09 22:56 171 8 gusting 10 32.8
2020-Jul-09 22:51 144 7 gusting 11 32.8
2020-Jul-09 22:46 109 8 gusting 11 33.3
2020-Jul-09 22:41 112 5 gusting 10 33.3
2020-Jul-09 22:36 094 7 gusting 11 32.8
2020-Jul-09 22:31 112 6 gusting 11 32.8
2020-Jul-09 22:26 100 8 gusting 11 33.3
2020-Jul-09 22:21 115 7 gusting 11 33.3
2020-Jul-09 22:16 115 10 gusting 11 33.3
2020-Jul-09 22:11 125 8 gusting 11 33.9
2020-Jul-09 22:06 112 7 gusting 11 33.9
2020-Jul-09 22:01 121 4 gusting 11 34.4
2020-Jul-09 21:56 125 6 gusting 8 34.4
2020-Jul-09 21:51 148 0 gusting 7 36.1
2020-Jul-09 21:46 270 0 gusting 7 36.1
2020-Jul-09 21:41 233 6 gusting 7 35.6
2020-Jul-09 21:36 233 6 gusting 6 35.6
2020-Jul-09 21:31 249 0 gusting 6 35.6
2020-Jul-09 21:26 214 3 gusting 6 35.6
2020-Jul-09 21:21 233 5 gusting 6 35.6
2020-Jul-09 21:16 243 6 gusting 6 35.6
2020-Jul-09 21:11 227 5 gusting 6 35.0
2020-Jul-09 21:06 260 5 gusting 8 35.0
2020-Jul-09 21:01 225 4 gusting 8 35.0
2020-Jul-09 20:56 225 6 gusting 8 36.1
2020-Jul-09 20:51 225 4 gusting 8 35.6
2020-Jul-09 20:46 253 6 gusting 8 35.6
2020-Jul-09 20:41 251 5 gusting 7 35.6
2020-Jul-09 20:36 219 6 gusting 7 35.6
2020-Jul-09 20:31 252 4 gusting 7 35.6
2020-Jul-09 20:26 210 7 gusting 13 35.6
2020-Jul-09 20:21 292 5 gusting 13 36.1
2020-Jul-09 20:16 213 4 gusting 13 35.6
2020-Jul-09 20:11 271 5 gusting 11 35.6
2020-Jul-09 20:07 265 2 gusting 11 35.6
2020-Jul-09 20:01 233 9 gusting 11 35.6
2020-Jul-09 19:56 212 7 gusting 10 35.0
2020-Jul-09 19:51 213 5 gusting 8 35.6
2020-Jul-09 19:46 223 6 gusting 8 36.1
2020-Jul-09 19:41 262 6 gusting 7 36.1
2020-Jul-09 19:37 037 4 gusting 7 35.6
2020-Jul-09 19:31 220 6 gusting 7 35.6
2020-Jul-09 19:26 252 6 gusting 7 35.0
2020-Jul-09 19:21 290 4 gusting 7 35.0
2020-Jul-09 19:16 257 5 gusting 8 35.0
2020-Jul-09 19:11 254 6 gusting 8 35.0
2020-Jul-09 19:06 261 5 gusting 7 35.0
2020-Jul-09 19:01 262 6 gusting 7 34.4
2020-Jul-09 18:56 270 5 gusting 11 34.4
2020-Jul-09 18:51 221 6 gusting 11 35.0
2020-Jul-09 18:46 239 7 gusting 11 35.6
2020-Jul-09 18:41 228 6 gusting 11 35.6
2020-Jul-09 18:36 264 6 gusting 8 35.6
2020-Jul-09 18:31 234 7 gusting 8 35.0
2020-Jul-09 18:26 204 7 gusting 8 35.6
2020-Jul-09 18:21 247 6 gusting 10 35.6
2020-Jul-09 18:16 270 8 gusting 10 35.6
2020-Jul-09 18:11 253 5 gusting 10 35.0
2020-Jul-09 18:06 281 5 gusting 8 35.0
2020-Jul-09 18:01 236 5 gusting 8 35.0
2020-Jul-09 17:57 227 7 gusting 22 35.0
2020-Jul-09 17:51 225 7 gusting 22 35.0
2020-Jul-09 17:46 211 5 gusting 22 35.0
2020-Jul-09 17:41 256 6 gusting 11 35.6
2020-Jul-09 17:36 288 5 gusting 11 35.6
2020-Jul-09 17:31 206 6 gusting 8 35.0
2020-Jul-09 17:26 237 6 gusting 10 35.0
2020-Jul-09 17:21 229 7 gusting 12 34.4
2020-Jul-09 17:16 258 8 gusting 12 34.4
2020-Jul-09 17:11 263 6 gusting 10 34.4
2020-Jul-09 17:06 248 8 gusting 8 34.4
2020-Jul-09 17:01 183 5 gusting 11 34.4
2020-Jul-09 16:56 240 6 gusting 11 34.4
2020-Jul-09 16:51 258 4 gusting 10 34.4
2020-Jul-09 16:46 219 9 gusting 10 33.9
2020-Jul-09 16:41 221 8 gusting 10 34.4
2020-Jul-09 16:36 246 6 gusting 8 33.9
2020-Jul-09 16:31 239 6 gusting 8 33.9
2020-Jul-09 16:26 257 6 gusting 8 34.4
2020-Jul-09 16:21 210 6 gusting 8 33.9
2020-Jul-09 16:16 233 7 gusting 8 33.9
2020-Jul-09 16:11 225 6 gusting 7 33.9
2020-Jul-09 16:06 281 5 gusting 12 33.9
2020-Jul-09 16:01 282 6 gusting 12 33.3
2020-Jul-09 15:56 270 6 gusting 8 33.3
2020-Jul-09 15:51 240 7 gusting 8 33.3
2020-Jul-09 15:46 008 7 gusting 8 33.9
2020-Jul-09 15:41 225 4 gusting 7 33.9
2020-Jul-09 15:36 213 6 gusting 7 33.3
2020-Jul-09 15:31 276 5 gusting 6 32.2
2020-Jul-09 15:26 250 4 gusting 7 32.8
2020-Jul-09 15:21 282 5 gusting 7 32.8
2020-Jul-09 15:16 336 4 gusting 6 32.8
2020-Jul-09 15:12 317 4 gusting 8 32.8
2020-Jul-09 15:06 281 6 gusting 8 32.8
2020-Jul-09 15:01 322 6 gusting 8 32.8
2020-Jul-09 14:56 281 5 gusting 8 32.2
2020-Jul-09 14:51 243 4 gusting 8 32.8
2020-Jul-09 14:46 262 3 gusting 7 32.2
2020-Jul-09 14:41 270 6 gusting 7 32.2
2020-Jul-09 14:36 283 5 gusting 8 31.7
2020-Jul-09 14:32 251 6 gusting 8 31.7
2020-Jul-09 14:26 32.2
2020-Jul-09 14:21 297 6 gusting 6 31.7
2020-Jul-09 14:16 270 4 gusting 6 31.7
2020-Jul-09 14:11 234 6 gusting 8 31.7
2020-Jul-09 14:06 280 7 gusting 8 31.7
2020-Jul-09 14:01 288 5 gusting 8 31.1
2020-Jul-09 13:56 277 6 gusting 8 31.1
2020-Jul-09 13:51 270 7 gusting 7 31.7
2020-Jul-09 13:46 300 4 gusting 7 31.1
2020-Jul-09 13:41 292 6 gusting 7 31.1
2020-Jul-09 13:36 246 5 gusting 6 31.1
2020-Jul-09 13:31 349 4 gusting 6 30.6
2020-Jul-09 13:26 276 4 gusting 6 30.6
2020-Jul-09 13:21 237 4 gusting 7 30.0
2020-Jul-09 13:16 302 7 gusting 7 30.0
2020-Jul-09 13:11 270 5 gusting 7 30.0
2020-Jul-09 13:06 288 5 gusting 8 30.0
2020-Jul-09 13:01 270 6 gusting 8 29.4
2020-Jul-09 12:56 248 5 gusting 8 29.4
2020-Jul-09 12:52 270 8 gusting 8 29.4
2020-Jul-09 12:46 236 4 gusting 5 29.4
2020-Jul-09 12:41 246 1 gusting 4 28.9
2020-Jul-09 12:36 259 1 gusting 6 28.9
2020-Jul-09 12:31 266 5 gusting 6 28.9
2020-Jul-09 12:26 268 3 gusting 5 28.3
2020-Jul-09 12:21 270 1 gusting 4 28.3
2020-Jul-09 12:16 288 1 gusting 5 27.8
2020-Jul-09 12:11 270 1 gusting 5 27.8
2020-Jul-09 12:06 233 0 gusting 5 27.8
2020-Jul-09 12:01 281 2 gusting 5 27.2
2020-Jul-09 11:56 256 1 gusting 5 26.7
2020-Jul-09 11:52 249 1 gusting 5 26.7
2020-Jul-09 11:46 251 26.1
2020-Jul-09 11:41 238 26.1
2020-Jul-09 11:36 235 25.6
2020-Jul-09 11:31 246 25.6
2020-Jul-09 11:26 236 25.6
2020-Jul-09 11:21 261 25.6
2020-Jul-09 11:16 282 25.0
2020-Jul-09 11:11 270 25.0
2020-Jul-09 11:06 257 25.0
2020-Jul-09 11:01 250 25.0
2020-Jul-09 10:56 270 25.0
2020-Jul-09 10:51 249 25.6
2020-Jul-09 10:46 255 25.6
2020-Jul-09 10:42 235 25.6
2020-Jul-09 10:36 270 25.6
2020-Jul-09 10:31 259 25.6
2020-Jul-09 10:26 226 25.6
2020-Jul-09 10:21 270 1 gusting 4 25.6
2020-Jul-09 10:16 232 2 gusting 5 25.6
2020-Jul-09 10:11 229 4 gusting 5 25.6
2020-Jul-09 10:06 264 3 gusting 4 25.6
2020-Jul-09 10:01 245 25.6
2020-Jul-09 09:56 244 25.6
2020-Jul-09 09:51 255 25.6
2020-Jul-09 09:46 247 0 gusting 4 25.6
2020-Jul-09 09:41 255 2 gusting 4 25.6
2020-Jul-09 09:36 248 25.6
2020-Jul-09 09:31 255 1 gusting 4 25.6
2020-Jul-09 09:26 260 1 gusting 4 25.6
2020-Jul-09 09:21 264 2 gusting 4 26.1
2020-Jul-09 09:16 243 2 gusting 4 26.1
2020-Jul-09 09:11 232 26.1
2020-Jul-09 09:06 248 26.1
2020-Jul-09 09:01 226 26.1
2020-Jul-09 08:56 270 26.1
2020-Jul-09 08:51 225 26.1
2020-Jul-09 08:46 219 26.1
2020-Jul-09 08:41 242 26.1
2020-Jul-09 08:37 228 26.1
2020-Jul-09 08:31 266 26.1
2020-Jul-09 08:26 204 26.1
2020-Jul-09 08:21 248 26.7
2020-Jul-09 08:16 258 0 gusting 2 26.7
2020-Jul-09 08:11 249 26.7
2020-Jul-09 08:06 238 26.7
2020-Jul-09 08:01 225 0 gusting 2 26.7
2020-Jul-09 07:56 242 0 gusting 2 26.7
2020-Jul-09 07:51 225 0 gusting 2 26.7
2020-Jul-09 07:46 261 26.7
2020-Jul-09 07:41 246 1 gusting 4 26.7
2020-Jul-09 07:36 215 2 gusting 4 26.7
2020-Jul-09 07:31 220 2 gusting 4 26.7
2020-Jul-09 07:26 220 4 gusting 4 26.7
2020-Jul-09 07:21 210 0 gusting 4 26.7
2020-Jul-09 07:16 269 4 gusting 4 26.7
2020-Jul-09 07:11 225 1 gusting 2 26.7
2020-Jul-09 07:06 225 27.2
2020-Jul-09 07:01 248 27.2
2020-Jul-09 06:56 248 27.2
2020-Jul-09 06:51 242 27.2
2020-Jul-09 06:46 246 27.2
2020-Jul-09 06:41 247 27.2
2020-Jul-09 06:36 257 27.2
2020-Jul-09 06:31 251 27.2
2020-Jul-09 06:27 208 27.2
2020-Jul-09 06:21 225 27.2
2020-Jul-09 06:16 259 27.2
2020-Jul-09 06:11 233 27.2
2020-Jul-09 06:06 222 0 gusting 2 27.2
2020-Jul-09 06:01 230 1 gusting 4 27.2
2020-Jul-09 05:56 202 1 gusting 4 27.8
2020-Jul-09 05:51 225 0 gusting 4 27.8
2020-Jul-09 05:46 205 0 gusting 4 27.8
2020-Jul-09 05:41 226 0 gusting 4 27.8
2020-Jul-09 05:36 236 2 gusting 4 27.8
2020-Jul-09 05:31 225 27.8
2020-Jul-09 05:26 241 1 gusting 5 27.8
2020-Jul-09 05:21 214 4 gusting 5 27.8
2020-Jul-09 05:16 241 4 gusting 4 27.8
2020-Jul-09 05:11 248 0 gusting 5 27.8
2020-Jul-09 05:06 238 2 gusting 5 27.8
2020-Jul-09 05:01 235 0 gusting 4 27.8
2020-Jul-09 04:56 217 0 gusting 2 27.8
2020-Jul-09 04:51 180 28.3
2020-Jul-09 04:46 216 28.3
2020-Jul-09 04:41 238 2 gusting 5 28.3
2020-Jul-09 04:36 234 4 gusting 5 28.3
2020-Jul-09 04:31 239 2 gusting 6 28.3
2020-Jul-09 04:26 225 4 gusting 6 28.3
2020-Jul-09 04:21 213 4 gusting 6 28.3
2020-Jul-09 04:16 217 4 gusting 6 28.3
2020-Jul-09 04:11 226 5 gusting 6 28.3
2020-Jul-09 04:06 213 4 gusting 6 28.3
2020-Jul-09 04:01 229 2 gusting 5 28.3
2020-Jul-09 03:56 240 1 gusting 5 28.3
2020-Jul-09 03:51 239 2 gusting 6 28.3
2020-Jul-09 03:47 189 4 gusting 6 28.3
2020-Jul-09 03:41 223 0 gusting 4 28.3
2020-Jul-09 03:36 223 2 gusting 4 28.3
2020-Jul-09 03:31 212 2 gusting 4 28.3
2020-Jul-09 03:26 223 28.3
2020-Jul-09 03:21 214 0 gusting 2 28.9
2020-Jul-09 03:16 219 1 gusting 4 28.9
2020-Jul-09 03:11 242 1 gusting 4 28.9
2020-Jul-09 03:06 142 28.9
2020-Jul-09 03:01 180 28.9
2020-Jul-09 02:56 207 28.9
2020-Jul-09 02:51 257 28.9
2020-Jul-09 02:46 230 28.9
2020-Jul-09 02:41 212 28.9
2020-Jul-09 02:36 215 28.9
2020-Jul-09 02:32 225 28.9
2020-Jul-09 02:26 248 28.9
2020-Jul-09 02:21 234 28.9
2020-Jul-09 02:16 224 28.9
2020-Jul-09 02:11 225 28.9
2020-Jul-09 02:06 224 28.9
2020-Jul-09 02:01 227 28.9
2020-Jul-09 01:56 256 0 gusting 4 29.4
2020-Jul-09 01:51 258 0 gusting 4 29.4
2020-Jul-09 01:46 243 29.4
2020-Jul-09 01:41 225 1 gusting 4 29.4
2020-Jul-09 01:36 238 2 gusting 4 29.4
2020-Jul-09 01:31 237 2 gusting 4 29.4
2020-Jul-09 01:26 216 0 gusting 4 29.4
2020-Jul-09 01:21 239 1 gusting 5 29.4
2020-Jul-09 01:16 214 3 gusting 5 29.4
2020-Jul-09 01:11 204 4 gusting 5 29.4
2020-Jul-09 01:06 265 0 gusting 4 29.4
2020-Jul-09 01:01 209 1 gusting 5 29.4
2020-Jul-09 00:56 225 4 gusting 5 30.0
2020-Jul-09 00:51 261 5 gusting 5 30.0
2020-Jul-09 00:46 225 4 gusting 6 30.0
2020-Jul-09 00:41 225 3 gusting 6 30.0
2020-Jul-09 00:36 215 4 gusting 6 30.0
2020-Jul-09 00:31 216 5 gusting 6 30.0
2020-Jul-09 00:26 231 5 gusting 6 30.0
2020-Jul-09 00:21 222 2 gusting 6 30.0
2020-Jul-09 00:16 211 4 gusting 6 30.0
2020-Jul-09 00:11 214 2 gusting 4 30.0
2020-Jul-09 00:06 188 30.0
2020-Jul-09 00:01 234 1 gusting 5 30.0
2020-Jul-08 23:56 216 4 gusting 5 30.0
2020-Jul-08 23:51 223 3 gusting 5 30.0
2020-Jul-08 23:46 213 2 gusting 5 30.0
2020-Jul-08 23:41 310 3 gusting 6 30.0
2020-Jul-08 23:36 301 6 gusting 8 29.4
2020-Jul-08 23:31 259 5 gusting 12 30.0
2020-Jul-08 23:26 216 6 gusting 12 30.0
2020-Jul-08 23:21 250 10 gusting 12 30.0
2020-Jul-08 23:16 257 7 gusting 12 30.6
2020-Jul-08 23:11 250 10 gusting 13 30.6
2020-Jul-08 23:06 274 7 gusting 13 31.1
2020-Jul-08 23:01 242 8 gusting 13 32.2
2020-Jul-08 22:56 208 3 gusting 6 32.2
2020-Jul-08 22:51 211 5 gusting 7 32.2
2020-Jul-08 22:46 180 6 gusting 7 32.8
2020-Jul-08 22:41 183 5 gusting 6 33.3
2020-Jul-08 22:36 180 4 gusting 6 33.3
2020-Jul-08 22:31 187 6 gusting 7 33.3
2020-Jul-08 22:26 233 6 gusting 7 34.4
2020-Jul-08 22:21 193 4 gusting 7 33.9
2020-Jul-08 22:16 181 5 gusting 8 33.9
2020-Jul-08 22:11 213 5 gusting 8 33.9
2020-Jul-08 22:06 198 6 gusting 8 33.9
2020-Jul-08 22:01 198 4 gusting 8 33.9
2020-Jul-08 21:56 214 7 gusting 8 33.3
2020-Jul-08 21:51 180 7 gusting 7 33.3
2020-Jul-08 21:46 185 6 gusting 7 33.3
2020-Jul-08 21:41 158 6 gusting 7 33.9
2020-Jul-08 21:36 218 5 gusting 7 33.9
2020-Jul-08 21:31 120 6 gusting 8 33.3
2020-Jul-08 21:26 162 7 gusting 8 33.3
2020-Jul-08 21:21 180 7 gusting 8 33.3
2020-Jul-08 21:17 181 6 gusting 8 33.3
2020-Jul-08 21:11 161 6 gusting 8 33.3
2020-Jul-08 21:06 145 8 gusting 8 32.8
2020-Jul-08 21:01 189 7 gusting 8 32.8
2020-Jul-08 20:56 170 7 gusting 10 32.8
2020-Jul-08 20:51 139 9 gusting 10 32.8
2020-Jul-08 20:46 142 8 gusting 11 32.8
2020-Jul-08 20:41 153 7 gusting 11 32.8
2020-Jul-08 20:36 146 7 gusting 8 32.8
2020-Jul-08 20:31 152 7 gusting 11 32.8
2020-Jul-08 20:26 148 8 gusting 11 32.8
2020-Jul-08 20:21 182 9 gusting 11 32.2
2020-Jul-08 20:16 192 7 gusting 7 32.2
2020-Jul-08 20:11 112 6 gusting 6 32.2
2020-Jul-08 20:06 129 5 gusting 8 32.2
2020-Jul-08 20:01 180 5 gusting 8 32.2
2020-Jul-08 19:56 180 6 gusting 8 31.7
2020-Jul-08 19:51 180 6 gusting 7 31.7
2020-Jul-08 19:46 188 5 gusting 7 32.2
2020-Jul-08 19:41 147 6 gusting 6 31.7
2020-Jul-08 19:36 212 5 gusting 6 31.7
2020-Jul-08 19:31 204 6 gusting 6 31.7
2020-Jul-08 19:26 180 5 gusting 6 32.2
2020-Jul-08 19:21 133 4 gusting 6 32.2
2020-Jul-08 19:17 135 4 gusting 6 31.7
2020-Jul-08 19:11 125 4 gusting 6 31.7
2020-Jul-08 19:06 121 6 gusting 7 31.7
2020-Jul-08 19:01 217 6 gusting 7 30.6
2020-Jul-08 18:56 184 4 gusting 6 30.6
2020-Jul-08 18:51 135 6 gusting 6 29.4
2020-Jul-08 18:46 113 6 gusting 7 29.4
2020-Jul-08 18:41 112 2 gusting 10 29.4
2020-Jul-08 18:36 148 6 gusting 10 29.4
2020-Jul-08 18:31 145 5 gusting 7 30.0
2020-Jul-08 18:26 212 4 gusting 7 30.0
2020-Jul-08 18:21 135 6 gusting 8 29.4
2020-Jul-08 18:16 147 6 gusting 8 30.0
2020-Jul-08 18:11 202 6 gusting 10 30.0
2020-Jul-08 18:06 134 7 gusting 10 31.1
2020-Jul-08 18:01 094 5 gusting 8 31.7
2020-Jul-08 17:56 124 8 gusting 11 32.2
2020-Jul-08 17:51 110 10 gusting 11 32.8
2020-Jul-08 17:46 107 9 gusting 10 33.9
2020-Jul-08 17:41 071 6 gusting 7 34.4
2020-Jul-08 17:36 158 5 gusting 6 35.0
2020-Jul-08 17:31 022 5 gusting 6 35.0
2020-Jul-08 17:26 292 2 gusting 6 35.6
2020-Jul-08 17:21 245 2 gusting 6 36.1
2020-Jul-08 17:16 244 4 gusting 7 35.6
2020-Jul-08 17:12 245 5 gusting 7 34.4
2020-Jul-08 17:06 287 6 gusting 7 35.0
2020-Jul-08 17:01 216 5 gusting 8 34.4
2020-Jul-08 16:56 227 7 gusting 8 34.4
2020-Jul-08 16:51 220 7 gusting 7 33.9
2020-Jul-08 16:46 246 5 gusting 6 33.3
2020-Jul-08 16:41 224 7 gusting 6 33.3
2020-Jul-08 16:36 256 5 gusting 6 34.4
2020-Jul-08 16:31 263 5 gusting 6 34.4
2020-Jul-08 16:27 004 5 gusting 6 34.4
2020-Jul-08 16:21 307 2 gusting 6 35.0
2020-Jul-08 16:16 309 4 gusting 6 35.6
2020-Jul-08 16:11 031 2 gusting 6 34.4
2020-Jul-08 16:06 238 4 gusting 6 34.4
2020-Jul-08 16:01 216 4 gusting 6 34.4
2020-Jul-08 15:56 269 4 gusting 6 33.9
2020-Jul-08 15:51 270 5 gusting 6 35.0
2020-Jul-08 15:46 213 4 gusting 6 33.9
2020-Jul-08 15:41 008 1 gusting 6 33.9
2020-Jul-08 15:36 252 4 gusting 6 33.3
2020-Jul-08 15:31 249 2 gusting 6 33.3
2020-Jul-08 15:26 184 2 gusting 6 34.4
2020-Jul-08 15:21 330 2 gusting 6 33.9
2020-Jul-08 15:16 225 6 gusting 6 33.9
2020-Jul-08 15:11 141 4 gusting 6 33.3
2020-Jul-08 15:06 203 4 gusting 6 33.9
2020-Jul-08 15:01 190 4 gusting 6 33.3
2020-Jul-08 14:56 206 3 gusting 6 33.3
2020-Jul-08 14:51 239 5 gusting 7 32.8
2020-Jul-08 14:46 215 5 gusting 7 32.8
2020-Jul-08 14:41 223 3 gusting 6 33.9
2020-Jul-08 14:37 022 2 gusting 5 33.3
2020-Jul-08 14:31 180 3 gusting 5 32.2
2020-Jul-08 14:26 212 3 gusting 5 32.8
2020-Jul-08 14:21 180 3 gusting 6 32.8
2020-Jul-08 14:16 147 4 gusting 6 32.8
2020-Jul-08 14:11 131 5 gusting 6 32.2
2020-Jul-08 14:06 225 3 gusting 6 32.2
2020-Jul-08 14:01 108 2 gusting 6 32.2
2020-Jul-08 13:56 214 4 gusting 6 31.7
2020-Jul-08 13:51 204 4 gusting 6 32.2
2020-Jul-08 13:46 148 5 gusting 6 31.7
2020-Jul-08 13:41 178 4 gusting 7 31.7
2020-Jul-08 13:36 180 4 gusting 7 31.7
2020-Jul-08 13:31 169 4 gusting 6 31.7
2020-Jul-08 13:26 218 4 gusting 6 31.7
2020-Jul-08 13:21 245 5 gusting 6 31.1
2020-Jul-08 13:16 182 3 gusting 6 31.1
2020-Jul-08 13:11 169 5 gusting 6 30.6
2020-Jul-08 13:06 209 4 gusting 5 30.6
2020-Jul-08 13:01 149 3 gusting 5 30.6
2020-Jul-08 12:56 236 2 gusting 4 30.6
2020-Jul-08 12:51 223 1 gusting 4 30.0
2020-Jul-08 12:46 236 30.6
2020-Jul-08 12:42 257 30.0
2020-Jul-08 12:37 180 1 gusting 4 30.0
2020-Jul-08 12:31 194 0 gusting 4 29.4
2020-Jul-08 12:26 215 0 gusting 4 29.4
2020-Jul-08 12:21 219 30.0
2020-Jul-08 12:16 178 29.4
2020-Jul-08 12:11 244 29.4
2020-Jul-08 12:07 228 29.4
2020-Jul-08 12:01 128 28.9
2020-Jul-08 11:56 166 28.3
2020-Jul-08 11:51 190 28.3
2020-Jul-08 11:46 228 27.8
2020-Jul-08 11:42 270 27.8
2020-Jul-08 11:36 316 27.2
2020-Jul-08 11:31 270 1 gusting 2 26.7
2020-Jul-08 11:26 270 27.2
2020-Jul-08 11:22 253 26.1
2020-Jul-08 11:16 265 26.1
2020-Jul-08 11:12 284 25.6
2020-Jul-08 11:06 301 25.6
2020-Jul-08 11:02 292 25.0
2020-Jul-08 10:57 282 25.0
2020-Jul-08 10:52 022 25.0
2020-Jul-08 10:46 338 24.4
2020-Jul-08 10:42 270 25.0
2020-Jul-08 10:36 270 25.0
2020-Jul-08 10:31 270 25.0
2020-Jul-08 10:26 236 25.0
2020-Jul-08 10:21 212 25.0
2020-Jul-08 10:16 207 25.0
2020-Jul-08 10:11 270 25.0
2020-Jul-08 10:07 270 25.0
2020-Jul-08 10:01 270 25.0
2020-Jul-08 09:56 270 25.0
2020-Jul-08 09:51 248 25.0
2020-Jul-08 09:46 256 25.0
2020-Jul-08 09:41 270 25.0
2020-Jul-08 09:36 248 25.0
2020-Jul-08 09:31 248 25.0
2020-Jul-08 09:26 235 25.0
2020-Jul-08 09:21 259 25.0
2020-Jul-08 09:16 248 25.0
2020-Jul-08 09:11 248 25.0
2020-Jul-08 09:06 212 25.0
2020-Jul-08 09:01 239 25.0
2020-Jul-08 08:56 261 25.0
2020-Jul-08 08:51 174 25.0
2020-Jul-08 08:46 274 25.0
2020-Jul-08 08:41 270 25.0
2020-Jul-08 08:36 270 25.0
2020-Jul-08 08:31 292 25.0
2020-Jul-08 08:26 270 25.0
2020-Jul-08 08:21 248 25.0
2020-Jul-08 08:16 248 25.0
2020-Jul-08 08:11 255 25.0
2020-Jul-08 08:06 268 25.0
2020-Jul-08 08:01 305 25.0
2020-Jul-08 07:56 270 25.0
2020-Jul-08 07:51 270 25.6
2020-Jul-08 07:46 270 25.6
2020-Jul-08 07:41 283 25.6
2020-Jul-08 07:36 270 25.6
2020-Jul-08 07:31 270 25.6
2020-Jul-08 07:26 275 25.6
2020-Jul-08 07:21 288 25.6
2020-Jul-08 07:16 014 25.6
2020-Jul-08 07:11 345 25.6
2020-Jul-08 07:06 045 25.6
2020-Jul-08 07:01 013 25.6
2020-Jul-08 06:56 328 25.6
2020-Jul-08 06:51 022 25.6
2020-Jul-08 06:46 341 25.6
2020-Jul-08 06:41 277 25.6
2020-Jul-08 06:36 010 25.6
2020-Jul-08 06:31 302 25.6
2020-Jul-08 06:26 270 25.6
2020-Jul-08 06:21 270 25.6
2020-Jul-08 06:16 270 25.6
2020-Jul-08 06:11 270 25.6
2020-Jul-08 06:07 248 25.6
2020-Jul-08 06:01 257 25.6
2020-Jul-08 05:56 066 25.6
2020-Jul-08 05:52 324 25.6
2020-Jul-08 05:46 270 25.6
2020-Jul-08 05:41 270 25.6
2020-Jul-08 05:36 270 26.1
2020-Jul-08 05:31 300 26.1
2020-Jul-08 05:26 292 26.1
2020-Jul-08 05:21 293 26.1
2020-Jul-08 05:16 349 26.1
2020-Jul-08 05:11 005 26.1
2020-Jul-08 05:07 026 26.1
2020-Jul-08 05:01 348 0 gusting 2 26.1
2020-Jul-08 04:56 009 26.1
2020-Jul-08 04:51 022 26.1
2020-Jul-08 04:46 150 26.1
2020-Jul-08 04:41 315 26.1
2020-Jul-08 04:36 355 0 gusting 2 26.1
2020-Jul-08 04:31 280 26.7
2020-Jul-08 04:26 253 26.7
2020-Jul-08 04:21 260 26.7
2020-Jul-08 04:16 222 26.7
2020-Jul-08 04:11 153 2 gusting 4 26.7
2020-Jul-08 04:06 121 2 gusting 4 26.7
2020-Jul-08 04:02 173 2 gusting 4 26.7
2020-Jul-08 03:56 180 26.7
2020-Jul-08 03:51 167 26.7
2020-Jul-08 03:46 270 26.7
2020-Jul-08 03:41 090 26.7
2020-Jul-08 03:37 046 26.7
2020-Jul-08 03:32 041 26.7
2020-Jul-08 03:26 004 26.7
2020-Jul-08 03:21 053 26.7
2020-Jul-08 03:17 281 26.7
2020-Jul-08 03:11 005 26.7
2020-Jul-08 03:07 338 1 gusting 4 26.7
2020-Jul-08 03:01 332 2 gusting 4 26.7